CZ-6A DEB

Satellite information

Favourite Embed

Satellite Type and Status

DEBRISIN ORBIT

Key statistics

Satellite CZ-6A DEB at a glance.

Uptime

494

Days in orbit

Revolutions

≈ 14.2

Per day

Orbit

LEO

Low Earth Orbit

Inclination

89.0

Latest

Satellite identification and parameters

Extended collection of information and parameters for CZ-6A DEB.

Object identification

Identified? True

Debris? True

Object name: CZ-6A DEB

International designator: 2024-140RY

Object number (NORAD): 61178

Object ID (CCSDS): 61178

Country: PEOPLES REPUBLIC OF CHINA (PRC)

Current information (Y/N): Y

RCS size: SMALL

Orbital parameters

Period: 101.055 minutes

Inclination: 88.955 deg

SMA: 7186.738 km

Apoapsis: 838.311 km

Periapsis: 778.895 km

RAAN: 292.7976 deg

Eccentricy: 0.00413376

Argument of periapsis: 110.3894 deg

Mean anomaly: 250.1746 deg

Mean motion: 14.24967819 rev/day

Mean motion (dot): 0.00002399 rev/day2

B* drag term: 0.0010110308 1/REarth

Two-line elements (TLE)

Creation date: Dec. 12, 2025, 3:16 a.m.

Reference frame: TEME

Reference center: EARTH

Epoch: Dec. 11, 2025, 7:47 p.m. UTC

TLE line 0: 0 CZ-6A DEB

TLE line 1: 1 61178U 24140RY 25345.82494929 .00002399 00000-0 10110-2 0 9998

TLE line 2: 2 61178 88.9550 292.7976 0041338 110.3894 250.1746 14.24967819 67804

Live tracking on map

Real-time ground track for satellite CZ-6A DEB.

In-orbit conjunctions

A list of the most updated potential collisions computed for object CZ-6A DEB.

Target Orbit TCA Probability of collision Miss distance Type
SL-3 R/B LEO 2025-07-07 22:41:14 0.005572124 15.0 (m) ROCKET BODY
SL-16 DEB LEO 2024-12-31 17:30:35 0.0001073829 471.0 (m) DEBRIS
CZ-6A DEB LEO 2024-11-12 22:35:13 0.002247846 153.0 (m) DEBRIS
NOAA 17 DEB SSO 2024-09-28 02:42:28 0.0002541281 156.0 (m) DEBRIS
NOAA 16 DEB SSO 2024-09-25 14:31:54 0.00073323 849.0 (m) DEBRIS

Associated space launch

18 Low Earth Orbit communication satellites with Ku, Q and V band payloads for the G60 constellation operated by Shanghai Spacecom Satellite Technology (SSST) with funding backed by the Shanghai local government. Initial constellation will consist of 1296 satellites by 2027 with long term plans to expand it to 12000 satellites.

CZ-6A DEB was lifted into orbit during the mission ‘Long March 6A | G60 Polar Group 01’, on board a Long March 6A space rocket.

The launch took place on Aug. 6, 2024, 6:42 a.m. from Launch Complex 9A.

For more information about the launch, click the button.

Launch to space Long March 6A | G60 Polar Group 01
Long March 6A | G60 Polar Group 01

Agency: N/A

Status: Launch Successful

Launch date: Aug. 6, 2024, 6:42 a.m. UTC

Rocket: Long March 6A

Launch pad: Launch Complex 9A

Location: Taiyuan Satellite Launch Center, People's Republic of China

...

Latest news about this satellite

News about space launch
Brightness of first Chinese broadband constellation satellites alarms astronomers

The first satellites of a Chinese broadband constellation are significantly brighter than those of Western systems, posing a new challenge for astronomers.

News about space launch
Chinese rocket stage breaks up into cloud of more than 700 pieces of space debris

HELSINKI — A Chinese Long March 6A rocket’s upper stage has fragmented into a cloud of over 700 pieces of space debris, adding to concerns about long-term orbital safety. China […]

News about space launch
China's Thousand Sails Megaconstellation Kicks Off with Dangerous Debris Field

China's Thousand Sails Megaconstellation Kicks Off with Dangerous Debris Field


Newsletter sign-up

Weekly statistics, charts and insights to help you stay on top of the space industry.